星链-31274 (STARLINK-31274 )

导读

STARLINK-31274是美国SpaceX星链星座的一颗卫星,于2024年2月29日发射。星链计划旨在构建全球卫星互联网星座,为全球偏远地区、海洋等网络覆盖薄弱区域提供高速网络服务,该卫星入轨后将助力星链系统进一步扩容,提升星座整体的通信服务覆盖能力与容量。

基本信息
目录编号:
59078
目录名称:
STARLINK-31274
国际标识:
2024-041E
轨道中心:
EARTH
卫星名称:
星链-31274
卫星全名:
星链-31274 (STARLINK-31274 )
卫星状态:
在轨 (已飞行925 天)
发射日期:
2024-02-29 UTC
国别 :
美国 (US)
星等 :
--
该卫星已列入 空间交会检测服务 Space Conjunction Data Service (SCDS) ,当前飞行风险评估等级: 无高风险
轨道信息
数据来源 国际轨道数据
星历时间: 2026-09-11T14:37:32+0800
13小时前
查看轨道信息
半长轴: 6861.212km
偏心率: 0.0000708
轨道倾角: 43.001°
近地点辐角 244.004°
升交点赤经 342.685°
平近点角 116.074°
近地点: 482.589km
远地点: 483.561km
周期: 94.267分钟
每日圈数: 15.275714
详细信息
固有亮度:
5
最大亮度:
0.3
卫星平台:
Starlink v2.0 mini
覆盖范围:
全球
运营商:
太空探索技术公司
运营商所在国:
美国
制造商(研发单位):
太空探索技术公司
制造商所在国:
美国
使用方式:
暂无
卫星简介
星链(Starlink)计划是由太空探索技术公司(SpaceX)提出的一个巨型低轨卫星互联网星座项目,计划在2019年至2024年间在太空搭建由约1.2万颗卫星组成的“星链”网络,其中1584颗将部署在地球上空550千米处的近地轨道,并从2020年开始工作。该卫星仍在工作。
2D轨道图
3D轨道图
轨道高度分析图
轨道倾角分析图
轨道综合分析图
查看轨道综合分析图
与全量物体交会距离演化趋势
与全量物体交会风险概率演化趋势